| time (UTC) | temp C | wind direction | speed KPH | gust KPH | rain 1hr cm | rain 24hr cm | rain mn cm | humidity % | barometer mb |
| 20260510020839 | 12 | 55 | 4.8 | 8.0 | 0.00 | 0.00 | 0.00 | 78 | 1011.8 |
| 20260510020314 | 13 | 84 | 1.6 | 9.7 | 0.00 | 0.00 | 0.00 | 77 | 1011.8 |
| 20260510015830 | 13 | 78 | 3.2 | 9.7 | 0.00 | 0.00 | 0.00 | 77 | 1011.8 |
| 20260510015329 | 13 | 38 | 3.2 | 9.7 | 0.00 | 0.00 | 0.00 | 77 | 1011.9 |
| 20260510014824 | 13 | 40 | 4.8 | 9.7 | 0.00 | 0.00 | 0.00 | 77 | 1011.9 |
| 20260510014323 | 13 | 30 | 4.8 | 9.7 | 0.00 | 0.00 | 0.00 | 77 | 1012.0 |
| 20260510013817 | 13 | 38 | 6.4 | 8.0 | 0.00 | 0.00 | 0.00 | 77 | 1012.0 |
| 20260510013315 | 13 | 62 | 4.8 | 8.0 | 0.00 | 0.00 | 0.00 | 77 | 1012.0 |
| 20260510012830 | 13 | 49 | 3.2 | 6.4 | 0.00 | 0.00 | 0.00 | 77 | 1012.1 |
| 20260510012329 | 13 | 49 | 1.6 | 4.8 | 0.00 | 0.00 | 0.00 | 76 | 1012.1 |
| 20260510011820 | 13 | 49 | 1.6 | 6.4 | 0.00 | 0.00 | 0.00 | 75 | 1012.2 |
| 20260510011317 | 13 | 49 | 1.6 | 8.0 | 0.00 | 0.00 | 0.00 | 74 | 1012.2 |
| 20260510010833 | 13 | 48 | 6.4 | 12.9 | 0.00 | 0.00 | 0.00 | 74 | 1012.2 |
| 20260510010349 | 13 | 34 | 8.0 | 14.5 | 0.00 | 0.00 | 0.00 | 74 | 1012.2 |
| 20260510005825 | 13 | 29 | 6.4 | 16.1 | 0.00 | 0.00 | 0.00 | 74 | 1012.3 |
| 20260510005323 | 13 | 28 | 9.7 | 16.1 | 0.00 | 0.00 | 0.00 | 74 | 1012.2 |
| 20260510004817 | 14 | 30 | 6.4 | 11.3 | 0.00 | 0.00 | 0.00 | 73 | 1012.3 |
| 20260510004314 | 14 | 44 | 6.4 | 9.7 | 0.00 | 0.00 | 0.00 | 73 | 1012.3 |
| 20260510003829 | 14 | 40 | 4.8 | 12.9 | 0.00 | 0.00 | 0.00 | 73 | 1012.4 |
| 20260510003343 | 14 | 38 | 6.4 | 12.9 | 0.00 | 0.00 | 0.00 | 73 | 1012.4 |
| 20260510002818 | 14 | 40 | 4.8 | 9.7 | 0.00 | 0.00 | 0.00 | 72 | 1012.5 |
| 20260510002316 | 14 | 41 | 3.2 | 12.9 | 0.00 | 0.00 | 0.00 | 72 | 1012.5 |
| 20260510001832 | 14 | 28 | 9.7 | 12.9 | 0.00 | 0.00 | 0.00 | 72 | 1012.6 |
| 20260510001330 | 14 | 39 | 6.4 | 14.5 | 0.00 | 0.00 | 0.00 | 72 | 1012.6 |
| 20260510000823 | 14 | 61 | 4.8 | 19.3 | 0.00 | 0.00 | 0.00 | 72 | 1012.7 |
| 20260510000341 | 14 | 38 | 9.7 | 19.3 | 0.00 | 0.00 | 0.00 | 72 | 1012.8 |
| 20260509235815 | 14 | 15 | 3.2 | 14.5 | 0.00 | 0.00 | 0.00 | 72 | 1012.8 |
| 20260509235333 | 14 | 20 | 4.8 | 14.5 | 0.00 | 0.00 | 0.00 | 73 | 1012.9 |
| 20260509234827 | 13 | 42 | 6.4 | 11.3 | 0.00 | 0.00 | 0.00 | 73 | 1012.9 |
| 20260509234323 | 14 | 25 | 1.6 | 6.4 | 0.00 | 0.00 | 0.00 | 73 | 1013.0 |
| 20260509233819 | 14 | 25 | 4.8 | 6.4 | 0.00 | 0.00 | 0.00 | 72 | 1012.9 |
| 20260509233313 | 15 | 29 | 1.6 | 11.3 | 0.00 | 0.00 | 0.00 | 70 | 1013.0 |
| 20260509232828 | 15 | 19 | 8.0 | 11.3 | 0.00 | 0.00 | 0.00 | 70 | 1013.0 |
| 20260509232325 | 15 | 9 | 6.4 | 9.7 | 0.00 | 0.00 | 0.00 | 70 | 1012.9 |
| 20260509231821 | 15 | 9 | 6.4 | 14.5 | 0.00 | 0.00 | 0.00 | 69 | 1013.0 |
| 20260509231338 | 15 | 38 | 9.7 | 14.5 | 0.00 | 0.00 | 0.00 | 68 | 1013.0 |
| 20260509230858 | 15 | 16 | 4.8 | 14.5 | 0.00 | 0.00 | 0.00 | 67 | 1013.0 |
| 20260509230330 | 15 | 31 | 9.7 | 17.7 | 0.00 | 0.00 | 0.00 | 67 | 1013.0 |
| 20260509225824 | 16 | 51 | 8.0 | 17.7 | 0.00 | 0.00 | 0.00 | 67 | 1013.0 |
| 20260509225322 | 16 | 32 | 9.7 | 17.7 | 0.00 | 0.00 | 0.00 | 66 | 1013.0 |
| 20260509224818 | 16 | 31 | 8.0 | 14.5 | 0.00 | 0.00 | 0.00 | 66 | 1013.0 |
| 20260509224336 | 16 | 69 | 8.0 | 12.9 | 0.00 | 0.00 | 0.00 | 66 | 1013.0 |
| 20260509223829 | 16 | 25 | 6.4 | 16.1 | 0.00 | 0.00 | 0.00 | 65 | 1012.9 |
| 20260509223329 | 16 | 28 | 6.4 | 16.1 | 0.00 | 0.00 | 0.00 | 66 | 1012.9 |
| 20260509222824 | 16 | 44 | 8.0 | 11.3 | 0.00 | 0.00 | 0.00 | 65 | 1012.9 |
| 20260509222321 | 16 | 50 | 8.0 | 11.3 | 0.00 | 0.00 | 0.00 | 65 | 1013.0 |
| 20260509221835 | 16 | 32 | 8.0 | 14.5 | 0.00 | 0.00 | 0.00 | 65 | 1013.0 |
| 20260509221332 | 16 | 24 | 8.0 | 14.5 | 0.00 | 0.00 | 0.00 | 66 | 1013.1 |
| 20260509220825 | 16 | 36 | 8.0 | 12.9 | 0.00 | 0.00 | 0.00 | 66 | 1013.0 |
| 20260509220323 | 16 | 40 | 6.4 | 14.5 | 0.00 | 0.00 | 0.00 | 66 | 1013.1 |
| 20260509215818 | 16 | 21 | 6.4 | 14.5 | 0.00 | 0.00 | 0.00 | 66 | 1013.2 |
| 20260509215316 | 16 | 44 | 8.0 | 14.5 | 0.00 | 0.00 | 0.00 | 66 | 1013.2 |
| 20260509214831 | 16 | 36 | 8.0 | 14.5 | 0.00 | 0.00 | 0.00 | 66 | 1013.2 |
| 20260509214331 | 16 | 23 | 6.4 | 14.5 | 0.00 | 0.00 | 0.00 | 67 | 1013.2 |
| 20260509213847 | 16 | 37 | 8.0 | 17.7 | 0.00 | 0.00 | 0.00 | 66 | 1013.2 |
| 20260509213324 | 16 | 44 | 9.7 | 17.7 | 0.00 | 0.00 | 0.00 | 66 | 1013.2 |
| 20260509212818 | 16 | 32 | 6.4 | 12.9 | 0.00 | 0.00 | 0.00 | 67 | 1013.2 |
| 20260509212338 | 16 | 61 | 6.4 | 14.5 | 0.00 | 0.00 | 0.00 | 67 | 1013.2 |
| 20260509211854 | 16 | 14 | 8.0 | 14.5 | 0.00 | 0.00 | 0.00 | 68 | 1013.3 |
| 20260509211331 | 16 | 14 | 6.4 | 12.9 | 0.00 | 0.00 | 0.00 | 68 | 1013.2 |
| 20260509210827 | 16 | 36 | 4.8 | 12.9 | 0.00 | 0.00 | 0.00 | 67 | 1013.1 |
| 20260509210326 | 16 | 38 | 4.8 | 14.5 | 0.00 | 0.00 | 0.00 | 67 | 1013.1 |
| 20260509205821 | 16 | 34 | 8.0 | 16.1 | 0.00 | 0.00 | 0.00 | 67 | 1013.1 |
| 20260509205321 | 16 | 37 | 9.7 | 16.1 | 0.00 | 0.00 | 0.00 | 67 | 1013.2 |
| 20260509204817 | 16 | 31 | 6.4 | 12.9 | 0.00 | 0.00 | 0.00 | 67 | 1013.2 |
| 20260509204315 | 16 | 19 | 6.4 | 14.5 | 0.00 | 0.00 | 0.00 | 67 | 1013.2 |
| 20260509203827 | 16 | 26 | 6.4 | 14.5 | 0.00 | 0.00 | 0.00 | 67 | 1013.2 |
| 20260509203327 | 16 | 34 | 6.4 | 11.3 | 0.00 | 0.00 | 0.00 | 67 | 1013.2 |
| 20260509202822 | 16 | 23 | 8.0 | 14.5 | 0.00 | 0.00 | 0.00 | 68 | 1013.3 |
| 20260509202322 | 16 | 42 | 8.0 | 14.5 | 0.00 | 0.00 | 0.00 | 68 | 1013.4 |
| 20260509201819 | 16 | 49 | 9.7 | 17.7 | 0.00 | 0.00 | 0.00 | 69 | 1013.4 |
| 20260509201316 | 16 | 360 | 8.0 | 17.7 | 0.00 | 0.00 | 0.00 | 70 | 1013.4 |
| 20260509200833 | 16 | 12 | 6.4 | 14.5 | 0.00 | 0.00 | 0.00 | 71 | 1013.4 |
| 20260509200330 | 16 | 42 | 4.8 | 9.7 | 0.00 | 0.00 | 0.00 | 71 | 1013.4 |
| 20260509195827 | 16 | 49 | 4.8 | 8.0 | 0.00 | 0.00 | 0.00 | 71 | 1013.4 |
| 20260509195326 | 16 | 11 | 4.8 | 8.0 | 0.00 | 0.00 | 0.00 | 70 | 1013.2 |
| 20260509194822 | 16 | 351 | 3.2 | 12.9 | 0.00 | 0.00 | 0.00 | 70 | 1013.2 |
| 20260509194341 | 17 | 26 | 6.4 | 12.9 | 0.00 | 0.00 | 0.00 | 70 | 1013.2 |
| 20260509193837 | 17 | 360 | 4.8 | 9.7 | 0.00 | 0.00 | 0.00 | 69 | 1013.2 |
| 20260509193356 | 17 | 38 | 6.4 | 12.9 | 0.00 | 0.00 | 0.00 | 68 | 1013.1 |
| 20260509192832 | 17 | 9 | 4.8 | 12.9 | 0.00 | 0.00 | 0.00 | 68 | 1013.1 |
| 20260509192330 | 17 | 41 | 4.8 | 9.7 | 0.00 | 0.00 | 0.00 | 68 | 1013.0 |
| 20260509191825 | 18 | 42 | 4.8 | 9.7 | 0.00 | 0.00 | 0.00 | 68 | 1013.1 |
| 20260509191322 | 18 | 24 | 4.8 | 9.7 | 0.00 | 0.00 | 0.00 | 67 | 1013.1 |
| 20260509190838 | 18 | 11 | 4.8 | 11.3 | 0.00 | 0.00 | 0.00 | 66 | 1013.0 |
| 20260509190315 | 18 | 27 | 6.4 | 11.3 | 0.00 | 0.00 | 0.00 | 66 | 1013.0 |
| 20260509185832 | 18 | 9 | 4.8 | 16.1 | 0.00 | 0.00 | 0.00 | 65 | 1013.0 |
| 20260509185330 | 18 | 26 | 8.0 | 16.1 | 0.00 | 0.00 | 0.00 | 65 | 1012.9 |
| 20260509184825 | 18 | 15 | 6.4 | 12.9 | 0.00 | 0.00 | 0.00 | 64 | 1012.9 |
| 20260509184323 | 19 | 24 | 6.4 | 12.9 | 0.00 | 0.00 | 0.00 | 65 | 1012.9 |
| 20260509183819 | 19 | 30 | 6.4 | 11.3 | 0.00 | 0.00 | 0.00 | 65 | 1012.9 |
| 20260509183318 | 19 | 32 | 4.8 | 11.3 | 0.00 | 0.00 | 0.00 | 64 | 1012.9 |
| 20260509182833 | 19 | 36 | 6.4 | 9.7 | 0.00 | 0.00 | 0.00 | 64 | 1012.9 |
| 20260509182351 | 20 | 36 | 8.0 | 9.7 | 0.00 | 0.00 | 0.00 | 64 | 1012.9 |
| 20260509181828 | 20 | 42 | 6.4 | 12.9 | 0.00 | 0.00 | 0.00 | 62 | 1012.9 |
| 20260509181326 | 20 | 36 | 6.4 | 12.9 | 0.00 | 0.00 | 0.00 | 63 | 1012.9 |
| 20260509180822 | 20 | 26 | 4.8 | 12.9 | 0.00 | 0.00 | 0.00 | 63 | 1012.9 |
| 20260509180322 | 20 | 25 | 6.4 | 12.9 | 0.00 | 0.00 | 0.00 | 62 | 1012.9 |
| 20260509175818 | 20 | 15 | 6.4 | 11.3 | 0.00 | 0.00 | 0.00 | 61 | 1012.9 |
| 20260509175335 | 21 | 51 | 4.8 | 9.7 | 0.00 | 0.00 | 0.00 | 63 | 1012.9 |
| 20260509174831 | 21 | 9 | 4.8 | 9.7 | 0.00 | 0.00 | 0.00 | 61 | 1012.9 |
| 20260509174329 | 21 | 32 | 3.2 | 12.9 | 0.00 | 0.00 | 0.00 | 63 | 1012.9 |
| 20260509173825 | 21 | 80 | 6.4 | 14.5 | 0.00 | 0.00 | 0.00 | 61 | 1012.9 |
| 20260509173343 | 21 | 42 | 6.4 | 14.5 | 0.00 | 0.00 | 0.00 | 60 | 1012.9 |
| 20260509172819 | 21 | 24 | 6.4 | 11.3 | 0.00 | 0.00 | 0.00 | 60 | 1012.9 |
| 20260509172318 | 21 | 24 | 4.8 | 11.3 | 0.00 | 0.00 | 0.00 | 61 | 1012.9 |
| 20260509171815 | 21 | 54 | 6.4 | 14.5 | 0.00 | 0.00 | 0.00 | 58 | 1012.9 |
| 20260509171329 | 21 | 63 | 6.4 | 16.1 | 0.00 | 0.00 | 0.00 | 58 | 1012.9 |
| 20260509170826 | 21 | 68 | 9.7 | 17.7 | 0.00 | 0.00 | 0.00 | 57 | 1012.9 |
| 20260509170325 | 21 | 50 | 9.7 | 19.3 | 0.00 | 0.00 | 0.00 | 58 | 1012.9 |
| 20260509165822 | 21 | 32 | 12.9 | 19.3 | 0.00 | 0.00 | 0.00 | 57 | 1012.8 |
| 20260509165321 | 21 | 37 | 8.0 | 16.1 | 0.00 | 0.00 | 0.00 | 59 | 1012.9 |
| 20260509164818 | 21 | 71 | 8.0 | 16.1 | 0.00 | 0.00 | 0.00 | 57 | 1012.8 |
| 20260509164316 | 21 | 47 | 6.4 | 17.7 | 0.00 | 0.00 | 0.00 | 59 | 1012.9 |
| 20260509163858 | 22 | 94 | 12.9 | 20.9 | 0.00 | 0.00 | 0.00 | 55 | 1013.0 |
| 20260509163353 | 21 | 55 | 14.5 | 20.9 | 0.00 | 0.00 | 0.00 | 57 | 1013.1 |
| 20260509162827 | 22 | 84 | 9.7 | 16.1 | 0.00 | 0.00 | 0.00 | 56 | 1013.1 |
| 20260509162327 | 22 | 39 | 6.4 | 14.5 | 0.00 | 0.00 | 0.00 | 57 | 1013.1 |
| 20260509161822 | 22 | 67 | 8.0 | 16.1 | 0.00 | 0.00 | 0.00 | 57 | 1013.2 |
| 20260509161318 | 22 | 17 | 9.7 | 16.1 | 0.00 | 0.00 | 0.00 | 57 | 1013.2 |
| 20260509160814 | 22 | 134 | 4.8 | 19.3 | 0.00 | 0.00 | 0.00 | 50 | 1013.2 |
| 20260509160313 | 22 | 160 | 8.0 | 19.3 | 0.00 | 0.00 | 0.00 | 52 | 1013.3 |
| 20260509155828 | 22 | 113 | 11.3 | 19.3 | 0.00 | 0.00 | 0.00 | 52 | 1013.4 |
| 20260509155327 | 22 | 84 | 11.3 | 20.9 | 0.00 | 0.00 | 0.00 | 54 | 1013.4 |
| 20260509154825 | 22 | 98 | 11.3 | 20.9 | 0.00 | 0.00 | 0.00 | 55 | 1013.4 |
| 20260509154324 | 22 | 88 | 11.3 | 20.9 | 0.00 | 0.00 | 0.00 | 55 | 1013.3 |
| 20260509153819 | 22 | 46 | 8.0 | 16.1 | 0.00 | 0.00 | 0.00 | 61 | 1013.3 |
| 20260509153337 | 22 | 52 | 8.0 | 16.1 | 0.00 | 0.00 | 0.00 | 57 | 1013.5 |
| 20260509152832 | 22 | 69 | 9.7 | 24.1 | 0.00 | 0.00 | 0.00 | 59 | 1013.6 |
| 20260509152331 | 21 | 42 | 14.5 | 24.1 | 0.00 | 0.00 | 0.00 | 54 | 1013.6 |
| 20260509151828 | 21 | 92 | 8.0 | 27.4 | 0.00 | 0.00 | 0.00 | 54 | 1013.8 |
| 20260509151326 | 22 | 76 | 14.5 | 27.4 | 0.00 | 0.00 | 0.00 | 56 | 1013.7 |
| 20260509150821 | 22 | 42 | 14.5 | 25.7 | 0.00 | 0.00 | 0.00 | 54 | 1013.7 |
| 20260509150320 | 22 | 82 | 14.5 | 17.7 | 0.00 | 0.00 | 0.00 | 56 | 1013.8 |
| 20260509145814 | 21 | 103 | 11.3 | 20.9 | 0.00 | 0.00 | 0.00 | 55 | 1013.8 |
| 20260509145332 | 22 | 42 | 9.7 | 24.1 | 0.00 | 0.00 | 0.00 | 55 | 1013.7 |
| 20260509144914 | 22 | 88 | 6.4 | 24.1 | 0.00 | 0.00 | 0.00 | 59 | 1013.8 |
| 20260509144330 | 21 | 66 | 14.5 | 20.9 | 0.00 | 0.00 | 0.00 | 56 | 1013.8 |
| 20260509143827 | 22 | 78 | 9.7 | 20.9 | 0.00 | 0.00 | 0.00 | 55 | 1013.9 |
| 20260509143324 | 22 | 98 | 16.1 | 20.9 | 0.00 | 0.00 | 0.00 | 57 | 1013.8 |
| 20260509142819 | 22 | 102 | 8.0 | 22.5 | 0.00 | 0.00 | 0.00 | 55 | 1013.9 |
| 20260509142316 | 21 | 103 | 9.7 | 22.5 | 0.00 | 0.00 | 0.00 | 58 | 1013.9 |
| 20260509141827 | 21 | 92 | 9.7 | 24.1 | 0.00 | 0.00 | 0.00 | 56 | 1013.9 |
| 20260509141347 | 21 | 56 | 11.3 | 25.7 | 0.00 | 0.00 | 0.00 | 59 | 1013.9 |
| 20260509140820 | 21 | 117 | 14.5 | 20.9 | 0.00 | 0.00 | 0.00 | 55 | 1013.9 |
| 20260509140319 | 22 | 85 | 11.3 | 20.9 | 0.00 | 0.00 | 0.00 | 60 | 1014.0 |
| 20260509135833 | 22 | 172 | 11.3 | 22.5 | 0.00 | 0.00 | 0.00 | 56 | 1013.9 |
| 20260509135330 | 22 | 92 | 11.3 | 22.5 | 0.00 | 0.00 | 0.00 | 54 | 1014.0 |
| 20260509134826 | 22 | 117 | 14.5 | 24.1 | 0.00 | 0.00 | 0.00 | 56 | 1014.0 |
| 20260509134327 | 22 | 75 | 17.7 | 25.7 | 0.00 | 0.00 | 0.00 | 56 | 1014.1 |
| 20260509133821 | 22 | 20 | 16.1 | 25.7 | 0.00 | 0.00 | 0.00 | 59 | 1014.0 |
| 20260509133319 | 22 | 55 | 16.1 | 25.7 | 0.00 | 0.00 | 0.00 | 58 | 1014.1 |
| 20260509132814 | 22 | 51 | 17.7 | 32.2 | 0.00 | 0.00 | 0.00 | 58 | 1014.2 |
| 20260509132332 | 22 | 24 | 19.3 | 27.4 | 0.00 | 0.00 | 0.00 | 57 | 1014.3 |
| 20260509131826 | 22 | 97 | 9.7 | 19.3 | 0.00 | 0.00 | 0.00 | 62 | 1014.4 |
| 20260509131323 | 22 | 92 | 11.3 | 20.9 | 0.00 | 0.00 | 0.00 | 57 | 1014.6 |
| 20260509130817 | 22 | 117 | 12.9 | 27.4 | 0.00 | 0.00 | 0.00 | 56 | 1014.6 |
| 20260509130314 | 21 | 81 | 16.1 | 27.4 | 0.00 | 0.00 | 0.00 | 58 | 1014.6 |
| 20260509125829 | 21 | 96 | 12.9 | 22.5 | 0.00 | 0.00 | 0.00 | 58 | 1014.5 |
| 20260509125326 | 22 | 110 | 9.7 | 29.0 | 0.00 | 0.00 | 0.00 | 61 | 1014.6 |
| 20260509124823 | 21 | 65 | 11.3 | 29.0 | 0.00 | 0.00 | 0.00 | 55 | 1014.6 |
| 20260509124318 | 21 | 93 | 16.1 | 27.4 | 0.00 | 0.00 | 0.00 | 60 | 1014.7 |
| 20260509123835 | 21 | 93 | 19.3 | 27.4 | 0.00 | 0.00 | 0.00 | 57 | 1014.8 |
| 20260509123354 | 22 | 136 | 11.3 | 19.3 | 0.00 | 0.00 | 0.00 | 59 | 1014.8 |
| 20260509122847 | 21 | 59 | 9.7 | 24.1 | 0.00 | 0.00 | 0.00 | 57 | 1014.8 |
| 20260509122345 | 21 | 88 | 14.5 | 30.6 | 0.00 | 0.00 | 0.00 | 58 | 1014.9 |
| 20260509121820 | 21 | 52 | 17.7 | 30.6 | 0.00 | 0.00 | 0.00 | 58 | 1014.9 |
| 20260509121318 | 21 | 61 | 17.7 | 30.6 | 0.00 | 0.00 | 0.00 | 60 | 1014.9 |
| 20260509120833 | 21 | 91 | 11.3 | 30.6 | 0.00 | 0.00 | 0.00 | 61 | 1015.0 |
| 20260509120331 | 21 | 63 | 12.9 | 32.2 | 0.00 | 0.00 | 0.00 | 62 | 1015.1 |
| 20260509115827 | 21 | 101 | 12.9 | 32.2 | 0.00 | 0.00 | 0.00 | 62 | 1015.1 |
| 20260509115327 | 21 | 72 | 11.3 | 27.4 | 0.00 | 0.00 | 0.00 | 62 | 1015.1 |
| 20260509114822 | 21 | 107 | 17.7 | 27.4 | 0.00 | 0.00 | 0.00 | 60 | 1015.1 |
| 20260509114318 | 21 | 9 | 17.7 | 25.7 | 0.00 | 0.00 | 0.00 | 62 | 1015.2 |
| 20260509113829 | 21 | 82 | 11.3 | 29.0 | 0.00 | 0.00 | 0.00 | 61 | 1015.2 |
| 20260509113328 | 21 | 63 | 12.9 | 27.4 | 0.00 | 0.00 | 0.00 | 68 | 1015.4 |
| 20260509112825 | 20 | 115 | 14.5 | 24.1 | 0.00 | 0.00 | 0.00 | 61 | 1015.4 |
| 20260509112322 | 20 | 80 | 6.4 | 27.4 | 0.00 | 0.00 | 0.00 | 67 | 1015.5 |
| 20260509111817 | 20 | 53 | 6.4 | 22.5 | 0.00 | 0.00 | 0.00 | 68 | 1015.5 |
| 20260509111339 | 21 | 111 | 12.9 | 25.7 | 0.00 | 0.00 | 0.00 | 64 | 1015.5 |
| 20260509110855 | 20 | 75 | 14.5 | 24.1 | 0.00 | 0.00 | 0.00 | 67 | 1015.5 |
| 20260509110330 | 20 | 71 | 17.7 | 24.1 | 0.00 | 0.00 | 0.00 | 67 | 1015.6 |
| 20260509105825 | 20 | 55 | 16.1 | 24.1 | 0.00 | 0.00 | 0.00 | 67 | 1015.7 |
| 20260509105322 | 20 | 72 | 14.5 | 22.5 | 0.00 | 0.00 | 0.00 | 68 | 1015.7 |
| 20260509104836 | 20 | 78 | 8.0 | 25.7 | 0.00 | 0.00 | 0.00 | 68 | 1015.8 |
| 20260509104332 | 20 | 70 | 14.5 | 29.0 | 0.00 | 0.00 | 0.00 | 69 | 1015.9 |
| 20260509103848 | 20 | 26 | 17.7 | 29.0 | 0.00 | 0.00 | 0.00 | 68 | 1015.9 |
| 20260509103325 | 20 | 110 | 16.1 | 24.1 | 0.00 | 0.00 | 0.00 | 70 | 1015.8 |
| 20260509102820 | 19 | 101 | 11.3 | 24.1 | 0.00 | 0.00 | 0.00 | 67 | 1015.9 |
| 20260509102336 | 19 | 89 | 16.1 | 25.7 | 0.00 | 0.00 | 0.00 | 68 | 1016.0 |
| 20260509101850 | 19 | 95 | 14.5 | 25.7 | 0.00 | 0.00 | 0.00 | 69 | 1016.0 |
| 20260509101326 | 19 | 74 | 14.5 | 24.1 | 0.00 | 0.00 | 0.00 | 68 | 1016.0 |
| 20260509100821 | 19 | 74 | 11.3 | 24.1 | 0.00 | 0.00 | 0.00 | 67 | 1016.0 |
| 20260509100337 | 18 | 50 | 9.7 | 24.1 | 0.00 | 0.00 | 0.00 | 67 | 1016.1 |
| 20260509095832 | 18 | 118 | 8.0 | 24.1 | 0.00 | 0.00 | 0.00 | 69 | 1016.1 |
| 20260509095346 | 18 | 107 | 17.7 | 24.1 | 0.00 | 0.00 | 0.00 | 68 | 1016.1 |
| 20260509094841 | 18 | 118 | 14.5 | 20.9 | 0.00 | 0.00 | 0.00 | 67 | 1016.2 |
| 20260509094318 | 18 | 57 | 12.9 | 19.3 | 0.00 | 0.00 | 0.00 | 70 | 1016.2 |
| 20260509093815 | 18 | 54 | 12.9 | 17.7 | 0.00 | 0.00 | 0.00 | 68 | 1016.2 |
| 20260509093332 | 18 | 98 | 9.7 | 17.7 | 0.00 | 0.00 | 0.00 | 72 | 1016.1 |
| 20260509092828 | 18 | 109 | 11.3 | 24.1 | 0.00 | 0.00 | 0.00 | 70 | 1016.2 |
| 20260509092325 | 18 | 80 | 9.7 | 29.0 | 0.00 | 0.00 | 0.00 | 71 | 1016.1 |
| 20260509091841 | 18 | 45 | 9.7 | 22.5 | 0.00 | 0.00 | 0.00 | 69 | 1016.2 |
| 20260509091316 | 18 | 77 | 9.7 | 22.5 | 0.00 | 0.00 | 0.00 | 69 | 1016.2 |
| 20260509090830 | 18 | 51 | 9.7 | 20.9 | 0.00 | 0.00 | 0.00 | 71 | 1016.1 |
| 20260509090328 | 17 | 80 | 12.9 | 22.5 | 0.00 | 0.00 | 0.00 | 71 | 1016.2 |
| 20260509085845 | 17 | 101 | 14.5 | 22.5 | 0.00 | 0.00 | 0.00 | 70 | 1016.2 |
| 20260509085321 | 17 | 86 | 9.7 | 20.9 | 0.00 | 0.00 | 0.00 | 70 | 1016.1 |
| 20260509084835 | 17 | 124 | 9.7 | 20.9 | 0.00 | 0.00 | 0.00 | 70 | 1016.2 |
| 20260509084332 | 17 | 101 | 8.0 | 20.9 | 0.00 | 0.00 | 0.00 | 72 | 1016.3 |
| 20260509083826 | 17 | 106 | 9.7 | 19.3 | 0.00 | 0.00 | 0.00 | 74 | 1016.3 |
| 20260509083323 | 17 | 105 | 4.8 | 16.1 | 0.00 | 0.00 | 0.00 | 73 | 1016.3 |
| 20260509082815 | 17 | 103 | 9.7 | 17.7 | 0.00 | 0.00 | 0.00 | 73 | 1016.3 |
| 20260509082338 | 17 | 80 | 12.9 | 17.7 | 0.00 | 0.00 | 0.00 | 71 | 1016.4 |
| 20260509081853 | 16 | 13 | 8.0 | 17.7 | 0.00 | 0.00 | 0.00 | 72 | 1016.4 |
| 20260509081330 | 16 | 71 | 9.7 | 16.1 | 0.00 | 0.00 | 0.00 | 72 | 1016.5 |
| 20260509080826 | 16 | 103 | 6.4 | 14.5 | 0.00 | 0.00 | 0.00 | 73 | 1016.5 |
| 20260509080324 | 16 | 76 | 8.0 | 19.3 | 0.00 | 0.00 | 0.00 | 74 | 1016.5 |
| 20260509075841 | 16 | 50 | 8.0 | 17.7 | 0.00 | 0.00 | 0.00 | 75 | 1016.6 |
| 20260509075316 | 15 | 49 | 9.7 | 17.7 | 0.00 | 0.00 | 0.00 | 74 | 1016.6 |
| 20260509074827 | 15 | 47 | 9.7 | 19.3 | 0.00 | 0.00 | 0.00 | 74 | 1016.6 |
| 20260509074323 | 15 | 57 | 6.4 | 16.1 | 0.00 | 0.00 | 0.00 | 74 | 1016.6 |
| 20260509073835 | 15 | 26 | 8.0 | 16.1 | 0.00 | 0.00 | 0.00 | 76 | 1016.7 |
| 20260509073353 | 15 | 90 | 8.0 | 16.1 | 0.00 | 0.00 | 0.00 | 75 | 1016.7 |
| 20260509072826 | 15 | 73 | 8.0 | 17.7 | 0.00 | 0.00 | 0.00 | 76 | 1016.8 |
| 20260509072324 | 15 | 80 | 11.3 | 17.7 | 0.00 | 0.00 | 0.00 | 74 | 1016.7 |
| 20260509071818 | 15 | 57 | 9.7 | 17.7 | 0.00 | 0.00 | 0.00 | 75 | 1016.7 |
| 20260509071315 | 14 | 88 | 11.3 | 17.7 | 0.00 | 0.00 | 0.00 | 76 | 1016.7 |
| 20260509070830 | 14 | 92 | 8.0 | 19.3 | 0.00 | 0.00 | 0.00 | 78 | 1016.7 |
| 20260509070326 | 14 | 51 | 6.4 | 19.3 | 0.00 | 0.00 | 0.00 | 77 | 1016.7 |
| 20260509065840 | 13 | 51 | 6.4 | 14.5 | 0.00 | 0.00 | 0.00 | 78 | 1016.6 |
| 20260509065336 | 13 | 70 | 6.4 | 14.5 | 0.00 | 0.00 | 0.00 | 78 | 1016.7 |
| 20260509064831 | 13 | 63 | 6.4 | 14.5 | 0.00 | 0.00 | 0.00 | 78 | 1016.7 |
| 20260509064348 | 13 | 59 | 6.4 | 14.5 | 0.00 | 0.00 | 0.00 | 78 | 1016.7 |
| 20260509063823 | 13 | 34 | 3.2 | 14.5 | 0.00 | 0.00 | 0.00 | 78 | 1016.7 |
| 20260509063321 | 13 | 67 | 4.8 | 9.7 | 0.00 | 0.00 | 0.00 | 79 | 1016.6 |
| 20260509062816 | 12 | 60 | 4.8 | 14.5 | 0.00 | 0.00 | 0.00 | 79 | 1016.7 |
| 20260509062314 | 12 | 53 | 4.8 | 14.5 | 0.00 | 0.00 | 0.00 | 79 | 1016.7 |
| 20260509061829 | 12 | 65 | 4.8 | 12.9 | 0.00 | 0.00 | 0.00 | 79 | 1016.7 |
| 20260509061327 | 12 | 63 | 6.4 | 12.9 | 0.00 | 0.00 | 0.00 | 80 | 1016.6 |
| 20260509060824 | 12 | 83 | 6.4 | 14.5 | 0.00 | 0.00 | 0.00 | 80 | 1016.6 |
| 20260509060341 | 12 | 51 | 6.4 | 14.5 | 0.00 | 0.00 | 0.00 | 81 | 1016.6 |
| 20260509055815 | 12 | 65 | 8.0 | 14.5 | 0.00 | 0.00 | 0.00 | 81 | 1016.6 |
| 20260509055332 | 12 | 68 | 6.4 | 11.3 | 0.00 | 0.00 | 0.00 | 82 | 1016.5 |
| 20260509054828 | 12 | 72 | 4.8 | 14.5 | 0.00 | 0.00 | 0.00 | 82 | 1016.5 |
| 20260509054325 | 11 | 60 | 8.0 | 14.5 | 0.00 | 0.00 | 0.00 | 82 | 1016.5 |
| 20260509053835 | 11 | 60 | 8.0 | 14.5 | 0.00 | 0.00 | 0.00 | 83 | 1016.5 |
| 20260509053353 | 11 | 71 | 6.4 | 12.9 | 0.00 | 0.00 | 0.00 | 83 | 1016.5 |
| 20260509052826 | 11 | 88 | 8.0 | 11.3 | 0.00 | 0.00 | 0.00 | 84 | 1016.3 |
| 20260509052344 | 11 | 50 | 6.4 | 17.7 | 0.00 | 0.00 | 0.00 | 86 | 1016.3 |
| 20260509051839 | 10 | 69 | 8.0 | 17.7 | 0.00 | 0.00 | 0.00 | 87 | 1016.3 |
| 20260509051316 | 10 | 69 | 8.0 | 14.5 | 0.00 | 0.00 | 0.00 | 88 | 1016.3 |
| 20260509050831 | 9 | 91 | 8.0 | 14.5 | 0.00 | 0.00 | 0.00 | 89 | 1016.3 |
| 20260509050329 | 8 | 78 | 8.0 | 12.9 | 0.00 | 0.00 | 0.00 | 90 | 1016.2 |
| 20260509045846 | 8 | 64 | 8.0 | 12.9 | 0.00 | 0.00 | 0.00 | 90 | 1016.2 |
| 20260509045320 | 8 | 57 | 6.4 | 9.7 | 0.00 | 0.00 | 0.00 | 90 | 1016.3 |
| 20260509044834 | 8 | 49 | 4.8 | 8.0 | 0.00 | 0.00 | 0.00 | 90 | 1016.3 |
| 20260509044330 | 8 | 71 | 3.2 | 4.8 | 0.00 | 0.00 | 0.00 | 89 | 1016.3 |
| 20260509043825 | 8 | 71 | 1.6 | 4.8 | 0.00 | 0.00 | 0.00 | 88 | 1016.3 |
| 20260509043323 | 8 | 71 | 3.2 | 6.4 | 0.00 | 0.00 | 0.00 | 87 | 1016.2 |
| 20260509042819 | 9 | 71 | 3.2 | 6.4 | 0.00 | 0.00 | 0.00 | 87 | 1016.2 |
| 20260509042316 | 9 | 71 | 3.2 | 9.7 | 0.00 | 0.00 | 0.00 | 86 | 1016.2 |
| 20260509041859 | 9 | 65 | 4.8 | 9.7 | 0.00 | 0.00 | 0.00 | 87 | 1016.2 |
| 20260509041356 | 9 | 85 | 4.8 | 9.7 | 0.00 | 0.00 | 0.00 | 88 | 1016.2 |
| 20260509040849 | 9 | 70 | 6.4 | 12.9 | 0.00 | 0.00 | 0.00 | 89 | 1016.2 |
| 20260509040324 | 8 | 84 | 6.4 | 12.9 | 0.00 | 0.00 | 0.00 | 90 | 1016.1 |
| 20260509035819 | 8 | 93 | 6.4 | 12.9 | 0.00 | 0.10 | 0.00 | 91 | 1016.1 |
| 20260509035337 | 7 | 49 | 3.2 | 4.8 | 0.00 | 0.10 | 0.00 | 90 | 1016.1 |
| 20260509034854 | 8 | 42 | 1.6 | 4.8 | 0.00 | 0.10 | 0.00 | 89 | 1016.1 |
| 20260509034330 | 8 | 42 | 1.6 | 3.2 | 0.00 | 0.10 | 0.00 | 88 | 1016.1 |
| 20260509033825 | 8 | 42 | 3.2 | 6.4 | 0.00 | 0.10 | 0.00 | 88 | 1016.1 |
| 20260509033323 | 8 | 42 | 3.2 | 6.4 | 0.00 | 0.10 | 0.00 | 88 | 1016.1 |
| 20260509032817 | 8 | 55 | 3.2 | 6.4 | 0.00 | 0.10 | 0.00 | 86 | 1016.0 |
| 20260509032315 | 8 | 55 | 1.6 | 4.8 | 0.00 | 0.10 | 0.00 | 86 | 1016.1 |
| 20260509031831 | 9 | 55 | 0.0 | 4.8 | 0.00 | 0.10 | 0.00 | 86 | 1016.1 |
| 20260509031346 | 9 | 55 | 1.6 | 8.0 | 0.00 | 0.10 | 0.00 | 86 | 1016.2 |
| 20260509030820 | 10 | 55 | 4.8 | 8.0 | 0.00 | 0.10 | 0.00 | 85 | 1016.2 |
| 20260509030317 | 10 | 38 | 4.8 | 9.7 | 0.00 | 0.10 | 0.00 | 85 | 1016.2 |
| 20260509025815 | 10 | 61 | 4.8 | 9.7 | 0.00 | 0.10 | 0.00 | 84 | 1016.2 |
| 20260509025313 | 10 | 83 | 6.4 | 11.3 | 0.00 | 0.10 | 0.00 | 85 | 1016.2 |
| 20260509024855 | 10 | 67 | 6.4 | 14.5 | 0.00 | 0.10 | 0.00 | 85 | 1016.2 |
| 20260509024351 | 10 | 70 | 8.0 | 14.5 | 0.00 | 0.10 | 0.00 | 85 | 1016.3 |
| 20260509023826 | 10 | 54 | 6.4 | 12.9 | 0.00 | 0.10 | 0.00 | 85 | 1016.3 |
| 20260509023324 | 10 | 71 | 4.8 | 12.9 | 0.00 | 0.10 | 0.00 | 85 | 1016.3 |
| 20260509022838 | 10 | 49 | 6.4 | 12.9 | 0.00 | 0.10 | 0.00 | 84 | 1016.3 |
| 20260509022317 | 10 | 80 | 6.4 | 14.5 | 0.00 | 0.10 | 0.00 | 84 | 1016.3 |
| 20260509021828 | 10 | 75 | 8.0 | 14.5 | 0.00 | 0.10 | 0.00 | 84 | 1016.2 |
| 20260509021348 | 10 | 90 | 6.4 | 12.9 | 0.00 | 0.10 | 0.00 | 85 | 1016.2 |